TimePDT,TemperatureF,Dew PointF,Humidity,Sea Level PressureIn,VisibilityMPH,Wind Direction,Wind SpeedMPH,Gust SpeedMPH,PrecipitationIn,Events,Conditions,WindDirDegrees,DateUTC
12:53 AM,39.9,33.1,77,29.98,10.0,South,9.2,-,N/A,,Clear,170,2012-10-16 07:53:00
1:53 AM,37.9,32.0,79,29.99,10.0,South,9.2,-,N/A,,Clear,190,2012-10-16 08:53:00
2:53 AM,37.4,32.0,81,30.15,10.0,South,12.7,-,N/A,,Clear,170,2012-10-16 09:53:00
3:53 AM,37.9,32.0,79,29.95,10.0,South,15.0,-,N/A,,Clear,180,2012-10-16 10:53:00
4:53 AM,36.0,30.9,82,29.95,10.0,South,9.2,-,N/A,,Clear,180,2012-10-16 11:53:00
5:53 AM,34.0,30.0,85,30.00,10.0,South,10.4,-,N/A,,Clear,170,2012-10-16 12:53:00
6:53 AM,36.0,30.0,79,30.01,10.0,South,12.7,-,N/A,,Clear,180,2012-10-16 13:53:00
7:53 AM,37.9,32.0,79,30.04,10.0,South,11.5,-,N/A,,Clear,180,2012-10-16 14:53:00
8:53 AM,48.9,37.0,64,30.01,10.0,South,6.9,-,N/A,,Clear,170,2012-10-16 15:53:00
9:53 AM,57.9,34.0,41,29.95,10.0,South,4.6,-,N/A,,Clear,170,2012-10-16 16:53:00
10:53 AM,66.9,36.0,32,29.89,10.0,Variable,4.6,-,N/A,,Clear,0,2012-10-16 17:53:00
11:53 AM,69.1,37.0,31,29.87,10.0,WSW,6.9,-,N/A,,Clear,250,2012-10-16 18:53:00
12:53 PM,70.0,37.0,30,29.81,10.0,SSW,12.7,-,N/A,,Clear,210,2012-10-16 19:53:00
1:53 PM,73.0,37.0,27,29.77,10.0,SW,18.4,23.0,N/A,,Clear,230,2012-10-16 20:53:00
2:53 PM,73.9,36.0,25,29.75,10.0,West,10.4,24.2,N/A,,Clear,270,2012-10-16 21:53:00
3:53 PM,73.9,35.1,24,29.76,10.0,WNW,20.7,31.1,N/A,,Clear,290,2012-10-16 22:53:00
4:53 PM,70.0,33.1,26,29.80,10.0,WNW,20.7,29.9,N/A,,Clear,300,2012-10-16 23:53:00
5:53 PM,64.9,33.1,31,29.85,10.0,NW,13.8,20.7,N/A,,Clear,310,2012-10-17 00:53:00
6:53 PM,60.1,34.0,38,29.88,10.0,Calm,Calm,-,N/A,,Clear,0,2012-10-17 01:53:00
7:53 PM,57.0,37.0,47,29.90,10.0,WSW,4.6,-,N/A,,Mostly Cloudy,240,2012-10-17 02:53:00
8:53 PM,55.9,37.0,49,29.89,10.0,NW,6.9,-,N/A,,Partly Cloudy,310,2012-10-17 03:53:00
9:53 PM,52.0,37.0,57,29.91,10.0,North,9.2,-,N/A,,Clear,360,2012-10-17 04:53:00
10:53 PM,50.0,36.0,59,29.91,10.0,NNE,3.5,-,N/A,,Clear,20,2012-10-17 05:53:00
11:53 PM,46.9,34.0,61,29.94,10.0,North,8.1,-,N/A,,Clear,360,2012-10-17 06:53:00